EW7108 Weather Reports


Display with metric or nautical units.
time (UTC)temp
F
wind
direction
speed
MPH
gust
MPH
rain 1hr
in
rain 24hr
in
rain mn
in
humidity
%
barometer
mb
20181209201711 52 23 2.0 8.0 0.00 0.07 0.00 61 1024.5
20181209201206 52 338 3.0 9.0 0.00 0.07 0.00 61 1024.5
20181209200702 50 23 4.0 9.0 0.00 0.07 0.00 63 1024.5
20181209200158 51 23 3.0 7.0 0.00 0.07 0.00 61 1024.5
20181209195655 49 23 4.0 6.0 0.00 0.07 0.00 63 1024.5
20181209195147 49 23 4.0 7.0 0.00 0.07 0.00 63 1024.8
20181209194646 48 338 4.0 7.0 0.00 0.07 0.00 63 1024.5
20181209194141 49 45 2.0 6.0 0.00 0.07 0.00 65 1024.8
20181209193639 48 23 3.0 6.0 0.00 0.07 0.00 65 1024.8
20181209193134 49 248 1.0 6.0 0.00 0.07 0.00 63 1024.8
20181209192630 49 315 0.0 7.0 0.00 0.07 0.00 63 1024.8
20181209192125 49 203 2.0 8.0 0.00 0.07 0.00 63 1024.8
20181209191626 48 225 3.0 7.0 0.00 0.07 0.00 63 1024.8
20181209191117 48 23 4.0 9.0 0.00 0.07 0.00 63 1024.8
20181209190610 49 23 3.0 9.0 0.00 0.07 0.00 63 1025.2
20181209190111 49 45 5.0 8.0 0.00 0.07 0.00 63 1024.8
20181209185607 50 293 3.0 8.0 0.00 0.08 0.00 63 1024.8
20181209185102 49 23 2.0 8.0 0.00 0.08 0.00 63 1025.2
20181209184558 48 23 3.0 7.0 0.00 0.08 0.00 65 1025.6
20181209184057 47 45 3.0 7.0 0.00 0.08 0.00 66 1025.6
20181209183557 46 23 4.0 7.0 0.00 0.08 0.00 66 1025.6
20181209183054 47 45 2.0 7.0 0.00 0.08 0.00 66 1025.9
20181209182550 46 23 4.0 7.0 0.00 0.08 0.00 66 1025.9
20181209182046 46 23 2.0 7.0 0.00 0.09 0.00 66 1025.6
20181209181543 46 23 3.0 7.0 0.00 0.09 0.00 68 1025.6
20181209181039 46 23 5.0 8.0 0.00 0.09 0.00 68 1025.9
20181209180534 46 23 4.0 8.0 0.00 0.09 0.00 69 1025.9
20181209180033 46 338 3.0 7.0 0.00 0.09 0.00 69 1025.9
20181209175528 45 23 4.0 9.0 0.00 0.09 0.00 70 1026.3
20181209175023 45 23 4.0 10.0 0.00 0.09 0.00 70 1026.3
20181209174520 45 23 4.0 10.0 0.00 0.09 0.00 70 1026.3
20181209174016 45 23 4.0 11.0 0.00 0.09 0.00 70 1026.3
20181209173512 44 23 5.0 11.0 0.00 0.10 0.00 70 1026.6
20181209173009 44 23 5.0 11.0 0.00 0.10 0.00 70 1026.6
20181209172504 44 23 4.0 7.0 0.00 0.10 0.00 71 1026.6
20181209171957 44 23 4.0 7.0 0.00 0.10 0.00 71 1026.6
20181209171457 44 23 3.0 6.0 0.00 0.10 0.00 71 1026.6
20181209170954 44 23 3.0 5.0 0.00 0.10 0.00 71 1026.6
20181209170449 43 68 3.0 5.0 0.00 0.10 0.00 73 1026.6
20181209165947 43 23 2.0 4.0 0.00 0.10 0.00 74 1026.6
20181209165442 43 23 3.0 4.0 0.00 0.10 0.00 75 1026.6
20181209164939 42 45 2.0 7.0 0.00 0.10 0.00 75 1027.0
20181209164434 42 23 4.0 7.0 0.00 0.10 0.00 75 1026.6
20181209163926 42 23 3.0 9.0 0.00 0.10 0.00 75 1026.6
20181209163428 41 315 5.0 9.0 0.00 0.10 0.00 75 1026.6
20181209162925 42 23 4.0 7.0 0.00 0.10 0.00 75 1026.6
20181209162421 42 23 3.0 6.0 0.00 0.10 0.00 76 1027.0
20181209161916 41 45 4.0 6.0 0.00 0.11 0.00 76 1026.6
20181209161413 40 338 4.0 6.0 0.00 0.11 0.00 76 1026.6
20181209160908 41 23 3.0 5.0 0.00 0.11 0.00 76 1026.6
20181209160404 40 23 2.0 7.0 0.00 0.11 0.00 78 1026.6
20181209155901 40 23 4.0 7.0 0.00 0.11 0.00 78 1026.6
20181209155358 40 23 4.0 7.0 0.00 0.11 0.00 79 1026.6
20181209154854 40 45 3.0 6.0 0.00 0.11 0.00 80 1026.6
20181209154351 40 23 3.0 5.0 0.00 0.11 0.00 81 1026.6
20181209153847 40 23 3.0 5.0 0.00 0.11 0.00 81 1026.6
20181209153344 39 338 2.0 6.0 0.00 0.11 0.00 81 1026.6
20181209152839 39 23 2.0 5.0 0.00 0.11 0.00 81 1026.3
20181209152334 39 0 2.0 6.0 0.00 0.11 0.00 83 1026.3
20181209151826 39 23 3.0 7.0 0.00 0.11 0.00 83 1026.3
20181209151326 39 0 3.0 7.0 0.00 0.11 0.00 83 1026.3
20181209150823 38 23 3.0 5.0 0.00 0.11 0.00 83 1026.3
20181209150319 38 293 1.0 6.0 0.00 0.11 0.00 85 1026.6
20181209145814 38 45 3.0 6.0 0.00 0.11 0.00 85 1026.3
20181209145310 38 0 2.0 7.0 0.00 0.11 0.00 86 1026.3
20181209144807 38 23 2.0 7.0 0.00 0.12 0.00 86 1026.3
20181209144303 38 23 2.0 6.0 0.00 0.12 0.00 86 1025.9
20181209143756 38 23 3.0 7.0 0.00 0.12 0.00 86 1026.3
20181209143250 38 158 2.0 7.0 0.00 0.12 0.00 86 1026.3
20181209142751 37 23 2.0 7.0 0.00 0.12 0.00 86 1025.9
20181209142248 37 338 3.0 7.0 0.00 0.12 0.00 86 1025.9
20181209141743 37 23 3.0 5.0 0.00 0.13 0.00 86 1025.6
20181209141242 37 23 2.0 5.0 0.00 0.13 0.00 86 1025.9
20181209140734 37 23 2.0 4.0 0.00 0.13 0.00 86 1025.9
20181209140232 37 23 2.0 5.0 0.00 0.13 0.00 86 1025.6
20181209135726 37 23 2.0 6.0 0.00 0.13 0.00 86 1025.9
20181209135220 37 23 4.0 7.0 0.00 0.13 0.00 86 1025.6
20181209134719 37 45 2.0 7.0 0.00 0.13 0.00 88 1025.6
20181209134216 37 23 3.0 5.0 0.00 0.13 0.00 88 1025.6
20181209133711 37 23 2.0 5.0 0.00 0.14 0.00 88 1025.6
20181209133207 37 23 3.0 5.0 0.00 0.14 0.00 88 1025.6
20181209132702 37 23 2.0 5.0 0.00 0.14 0.00 88 1025.6
20181209132201 37 23 3.0 7.0 0.00 0.14 0.00 88 1025.2
20181209131702 37 23 3.0 7.0 0.00 0.14 0.00 88 1025.2
20181209131158 37 23 4.0 6.0 0.00 0.14 0.00 88 1025.2
20181209130655 37 23 2.0 5.0 0.00 0.14 0.00 88 1025.2
20181209130150 37 23 2.0 5.0 0.00 0.14 0.00 88 1025.2
20181209125647 37 23 2.0 5.0 0.00 0.15 0.00 88 1025.2
20181209125143 37 0 3.0 5.0 0.00 0.15 0.00 88 1025.2
20181209124638 37 23 2.0 5.0 0.00 0.16 0.00 88 1024.8
20181209124132 37 23 3.0 5.0 0.00 0.17 0.00 88 1024.8
20181209123632 37 23 2.0 4.0 0.00 0.17 0.00 88 1024.8
20181209123128 37 23 2.0 5.0 0.00 0.17 0.00 88 1024.8
20181209122625 37 23 3.0 5.0 0.00 0.18 0.00 88 1024.8
20181209122121 37 23 3.0 4.0 0.00 0.18 0.00 88 1024.5
20181209121617 37 23 3.0 7.0 0.00 0.18 0.00 88 1024.8
20181209121113 37 23 3.0 7.0 0.00 0.18 0.00 88 1024.5
20181209120607 36 23 2.0 4.0 0.00 0.18 0.00 88 1024.5
20181209120101 36 23 2.0 6.0 0.00 0.18 0.00 88 1024.5
20181209115601 36 45 4.0 6.0 0.00 0.18 0.00 88 1024.5
20181209115058 36 23 3.0 6.0 0.00 0.18 0.00 88 1024.5
20181209114554 36 0 4.0 6.0 0.00 0.18 0.00 88 1024.2
20181209114051 36 23 3.0 8.0 0.00 0.18 0.00 88 1024.5
20181209113547 36 338 4.0 8.0 0.00 0.18 0.00 88 1024.5
20181209113043 36 23 3.0 5.0 0.00 0.18 0.00 88 1024.5
20181209112539 36 23 2.0 6.0 0.00 0.18 0.00 88 1024.5
20181209112031 36 23 3.0 6.0 0.00 0.18 0.00 88 1024.2
20181209111531 36 23 2.0 7.0 0.00 0.18 0.00 88 1024.2
20181209111028 36 45 3.0 7.0 0.00 0.18 0.00 90 1024.5
20181209110526 36 23 3.0 8.0 0.00 0.18 0.00 90 1024.2
20181209110033 36 293 5.0 8.0 0.00 0.18 0.00 90 1024.2
20181209105517 36 23 4.0 7.0 0.00 0.18 0.00 90 1024.2
20181209105012 36 23 3.0 7.0 0.00 0.18 0.00 90 1024.2
20181209104508 36 23 2.0 4.0 0.00 0.18 0.00 91 1024.5
20181209104006 36 203 2.0 6.0 0.00 0.18 0.00 91 1024.5
20181209103502 36 45 3.0 6.0 0.00 0.18 0.00 91 1024.5
20181209102958 36 0 1.0 3.0 0.00 0.18 0.00 91 1024.5
20181209102456 36 23 2.0 3.0 0.00 0.18 0.00 91 1024.5
20181209101951 36 23 1.0 4.0 0.00 0.18 0.00 91 1024.5
20181209101447 36 315 2.0 4.0 0.00 0.18 0.00 91 1024.8
20181209100942 36 23 2.0 4.0 0.00 0.18 0.00 91 1024.8
20181209100438 36 23 2.0 4.0 0.00 0.18 0.00 91 1024.5
20181209095935 36 338 1.0 3.0 0.00 0.18 0.00 91 1024.8
20181209095432 36 23 2.0 3.0 0.00 0.18 0.00 91 1024.8
20181209094927 36 0 1.0 3.0 0.00 0.18 0.00 91 1024.8
20181209094425 36 23 0.0 5.0 0.00 0.18 0.00 91 1024.8
20181209093920 36 0 1.0 5.0 0.00 0.18 0.00 91 1024.8
20181209093415 36 0 2.0 4.0 0.00 0.18 0.00 91 1024.8
20181209092912 36 23 2.0 5.0 0.00 0.18 0.00 91 1024.5
20181209092408 36 23 2.0 5.0 0.00 0.18 0.00 91 1024.8
20181209091901 36 23 2.0 5.0 0.00 0.18 0.00 91 1024.8
20181209091359 36 23 3.0 5.0 0.00 0.18 0.00 91 1024.5
20181209090855 36 338 2.0 4.0 0.00 0.18 0.00 91 1024.5
20181209090352 36 23 2.0 3.0 0.00 0.18 0.00 91 1024.8
20181209085847 36 0 1.0 4.0 0.00 0.18 0.00 91 1024.5
20181209085343 36 23 2.0 4.0 0.00 0.18 0.00 91 1024.5
20181209084840 36 23 2.0 4.0 0.00 0.18 0.00 91 1024.5
20181209084337 36 23 2.0 6.0 0.00 0.18 0.00 91 1024.2
20181209083830 36 45 3.0 6.0 0.00 0.18 0.00 91 1024.5
20181209083325 36 23 2.0 4.0 0.00 0.18 0.00 91 1024.2
20181209082824 36 23 2.0 3.0 0.00 0.18 0.00 91 1024.5
20181209082321 36 90 1.0 4.0 0.00 0.18 0.00 91 1024.5
20181209081815 36 23 2.0 4.0 0.00 0.18 0.00 91 1024.2
20181209081311 36 315 1.0 6.0 0.00 0.18 0.00 91 1024.2
20181209080810 36 23 2.0 6.0 0.00 0.18 0.00 91 1024.2
20181209080309 36 23 3.0 6.0 0.00 0.18 0.00 91 1024.5
20181209075806 36 23 1.0 3.0 0.00 0.19 0.00 91 1024.5
20181209075306 36 23 1.0 3.0 0.00 0.19 0.00 91 1024.5
20181209074759 36 23 2.0 3.0 0.00 0.19 0.00 91 1024.5
20181209074255 36 0 1.0 5.0 0.00 0.19 0.00 91 1024.2
20181209073751 36 23 3.0 7.0 0.00 0.19 0.00 91 1024.2
20181209073247 36 23 3.0 7.0 0.00 0.19 0.00 91 1024.2
20181209072741 36 0 2.0 5.0 0.00 0.19 0.00 91 1023.8
20181209072240 36 338 1.0 4.0 0.00 0.19 0.00 91 1023.8
20181209071736 36 45 0.0 4.0 0.00 0.19 0.00 91 1024.2
20181209071232 36 23 2.0 4.0 0.00 0.19 0.00 91 1024.2
20181209070729 36 23 2.0 4.0 0.00 0.19 0.00 91 1024.2
20181209070224 36 23 2.0 5.0 0.00 0.19 0.00 91 1024.2
20181209065721 36 23 2.0 6.0 0.00 0.19 0.00 91 1024.2
20181209065218 36 23 2.0 6.0 0.00 0.20 0.00 91 1024.2
20181209064712 36 23 1.0 3.0 0.00 0.20 0.00 91 1024.2
20181209064210 36 23 1.0 4.0 0.00 0.20 0.00 91 1024.2
20181209063706 36 23 2.0 4.0 0.00 0.20 0.00 91 1023.8
20181209063203 36 23 2.0 4.0 0.00 0.20 0.00 91 1024.2
20181209062658 36 45 2.0 4.0 0.00 0.20 0.00 91 1024.2
20181209062156 36 23 2.0 6.0 0.00 0.20 0.00 91 1024.2
20181209061651 36 23 3.0 6.0 0.00 0.20 0.00 91 1024.2
20181209061147 36 23 2.0 5.0 0.00 0.20 0.00 93 1024.2
20181209060641 36 23 2.0 4.0 0.00 0.21 0.00 93 1023.8
20181209060134 36 23 2.0 5.0 0.00 0.21 0.00 93 1023.8
20181209055622 36 23 1.0 3.0 0.00 0.21 0.21 93 1023.8
20181209055115 36 23 0.0 4.0 0.00 0.21 0.21 93 1023.8
20181209054612 36 248 2.0 7.0 0.00 0.21 0.21 93 1023.8
20181209054109 36 23 2.0 7.0 0.00 0.21 0.21 93 1023.8
20181209053607 36 293 1.0 4.0 0.00 0.22 0.21 93 1024.2
20181209053100 36 315 2.0 4.0 0.00 0.22 0.21 93 1024.2
20181209052553 36 23 1.0 4.0 0.00 0.22 0.21 93 1023.8
20181209052053 36 23 2.0 4.0 0.00 0.23 0.21 93 1024.2
20181209051551 36 23 2.0 6.0 0.00 0.23 0.21 93 1024.2
20181209051047 36 315 2.0 6.0 0.00 0.23 0.21 93 1024.2
20181209050542 36 45 2.0 5.0 0.00 0.24 0.21 93 1024.2
20181209050038 36 23 2.0 5.0 0.00 0.24 0.21 93 1023.8
20181209045535 36 45 2.0 5.0 0.00 0.24 0.21 93 1023.8
20181209045030 36 23 2.0 4.0 0.00 0.24 0.21 93 1024.2
20181209044523 36 23 1.0 4.0 0.00 0.24 0.21 93 1023.8
20181209044024 36 23 1.0 6.0 0.00 0.25 0.21 93 1023.8
20181209043521 36 338 2.0 6.0 0.00 0.25 0.21 93 1023.8
20181209043016 36 23 1.0 4.0 0.00 0.25 0.21 93 1023.8
20181209042512 36 0 2.0 6.0 0.00 0.25 0.21 93 1023.8
20181209042008 36 23 1.0 6.0 0.00 0.25 0.21 93 1023.8
20181209041506 36 23 1.0 7.0 0.00 0.25 0.21 93 1023.8
20181209040958 36 23 2.0 7.0 0.00 0.25 0.21 93 1023.5
20181209040453 36 23 1.0 4.0 0.00 0.25 0.21 93 1023.8
20181209035952 36 23 1.0 4.0 0.00 0.26 0.21 93 1023.8
20181209035449 36 23 2.0 4.0 0.00 0.26 0.21 93 1023.5
20181209034944 36 23 0.0 4.0 0.00 0.26 0.21 93 1023.8
20181209034440 36 23 1.0 4.0 0.00 0.26 0.21 93 1023.8
20181209033937 36 23 1.0 4.0 0.00 0.26 0.21 93 1023.8
20181209033433 36 270 2.0 4.0 0.00 0.26 0.21 93 1023.8
20181209032928 36 23 1.0 3.0 0.00 0.26 0.21 93 1023.8
20181209032422 36 23 1.0 6.0 0.00 0.26 0.21 93 1023.8
20181209031917 36 23 1.0 7.0 0.00 0.26 0.21 93 1023.8
20181209031418 36 45 2.0 7.0 0.00 0.26 0.21 93 1023.8
20181209030912 36 45 2.0 6.0 0.00 0.26 0.21 93 1023.8
20181209030408 36 45 2.0 6.0 0.00 0.26 0.21 93 1023.5
20181209025904 36 23 2.0 4.0 0.00 0.26 0.21 93 1023.5
20181209025401 36 23 1.0 3.0 0.00 0.26 0.21 93 1023.5
20181209024856 36 23 1.0 4.0 0.00 0.26 0.21 93 1023.8
20181209024352 36 23 2.0 4.0 0.00 0.26 0.21 93 1023.5
20181209023847 37 23 2.0 9.0 0.00 0.27 0.21 93 1023.5
20181209023341 37 0 2.0 9.0 0.00 0.27 0.21 93 1023.5
20181209022840 37 45 1.0 4.0 0.00 0.27 0.21 93 1023.8
20181209022336 37 45 2.0 7.0 0.00 0.27 0.21 93 1023.5
20181209021832 37 23 3.0 8.0 0.00 0.27 0.21 93 1023.5
20181209021329 37 23 3.0 8.0 0.00 0.27 0.21 95 1023.5
20181209020827 37 23 2.0 7.0 0.00 0.27 0.21 95 1023.5
20181209020327 37 23 2.0 5.0 0.00 0.27 0.21 95 1023.5
20181209015823 37 23 2.0 5.0 0.00 0.28 0.21 95 1023.5
20181209015320 37 23 2.0 5.0 0.01 0.28 0.21 95 1023.5
20181209014817 37 23 2.0 6.0 0.01 0.29 0.21 95 1023.5
20181209014314 37 23 3.0 6.0 0.01 0.29 0.21 95 1023.5
20181209013817 37 23 3.0 6.0 0.01 0.29 0.21 95 1023.1
20181209012810 37 23 3.0 9.0 0.01 0.30 0.21 95 1023.1
20181209012304 37 23 2.0 7.0 0.01 0.31 0.21 95 1023.1
20181209011754 37 338 3.0 7.0 0.01 0.31 0.21 95 1023.1
20181209011250 37 0 3.0 5.0 0.01 0.31 0.21 95 1023.1
20181209010746 37 0 2.0 7.0 0.01 0.32 0.21 95 1023.1
20181209010242 37 23 4.0 7.0 0.01 0.32 0.21 95 1023.1
20181209005738 37 23 2.0 6.0 0.01 0.32 0.21 95 1023.1
20181209005235 37 23 2.0 7.0 0.01 0.31 0.20 95 1023.1
20181209004728 37 23 2.0 7.0 0.01 0.31 0.20 95 1023.1
20181209004228 37 23 2.0 4.0 0.01 0.32 0.20 95 1023.1
20181209003725 37 338 2.0 5.0 0.02 0.32 0.20 95 1022.8
20181209003220 37 23 2.0 6.0 0.02 0.32 0.20 95 1023.1
20181209002717 37 180 2.0 6.0 0.02 0.32 0.20 95 1022.8
20181209002213 37 23 1.0 7.0 0.02 0.32 0.20 95 1022.8
20181209001711 37 23 3.0 7.0 0.02 0.33 0.20 95 1022.8
20181209001204 37 23 2.0 5.0 0.03 0.33 0.20 95 1022.8
20181209000658 37 23 2.0 5.0 0.03 0.33 0.20 95 1022.8
20181209000158 37 23 2.0 5.0 0.03 0.33 0.20 95 1022.8
20181208235655 37 23 2.0 5.0 0.03 0.34 0.20 95 1022.5
20181208235150 37 23 2.0 5.0 0.02 0.33 0.19 93 1022.8
20181208234647 37 0 1.0 6.0 0.02 0.33 0.19 93 1022.5
20181208234143 37 23 4.0 6.0 0.03 0.34 0.19 93 1022.5
20181208233640 37 315 2.0 5.0 0.02 0.34 0.18 93 1022.8
20181208233133 37 45 2.0 5.0 0.02 0.34 0.18 93 1022.5
20181208232629 37 23 2.0 7.0 0.02 0.35 0.18 93 1022.5
20181208232128 37 45 2.0 7.0 0.02 0.35 0.18 93 1022.5
20181208231626 37 23 3.0 9.0 0.02 0.36 0.18 93 1022.5
20181208231124 37 0 4.0 9.0 0.01 0.35 0.17 93 1022.1
20181208230617 38 45 2.0 9.0 0.01 0.35 0.17 93 1022.1
20181208230113 38 90 5.0 9.0 0.01 0.36 0.17 93 1022.1
20181208225610 38 45 3.0 8.0 0.01 0.36 0.17 93 1022.1
20181208225103 38 23 4.0 10.0 0.01 0.36 0.17 93 1022.1
20181208224558 38 23 6.0 10.0 0.01 0.37 0.17 93 1022.1
20181208224057 38 23 5.0 9.0 0.00 0.36 0.16 93 1021.8
20181208223554 38 45 4.0 9.0 0.00 0.36 0.16 93 1021.8
20181208223049 38 338 5.0 7.0 0.00 0.36 0.16 93 1021.8
20181208222544 38 23 3.0 6.0 0.00 0.37 0.16 93 1021.8
20181208222041 38 23 4.0 9.0 0.01 0.37 0.16 93 1021.8
20181208221538 38 45 4.0 9.0 0.01 0.37 0.16 93 1021.8
20181208221032 38 23 3.0 9.0 0.01 0.37 0.16 93 1021.8
20181208220527 38 270 4.0 9.0 0.01 0.37 0.16 93 1021.8
20181208220021 38 23 5.0 9.0 0.01 0.37 0.16 93 1021.4
20181208215522 38 0 5.0 13.0 0.01 0.38 0.16 93 1021.4
20181208215017 38 338 5.0 13.0 0.02 0.38 0.16 93 1021.4
20181208214513 38 23 5.0 9.0 0.02 0.38 0.16 93 1021.4
20181208214011 38 0 4.0 8.0 0.02 0.38 0.16 93 1021.4
20181208213506 38 0 4.0 8.0 0.02 0.38 0.16 93 1021.1
20181208213001 38 23 4.0 8.0 0.02 0.38 0.16 95 1021.4
20181208212457 38 338 3.0 8.0 0.02 0.38 0.16 95 1021.4
20181208211950 38 23 3.0 8.0 0.01 0.38 0.15 95 1021.4
20181208211446 38 23 4.0 9.0 0.01 0.38 0.15 95 1021.4
20181208210944 38 45 4.0 9.0 0.01 0.38 0.15 95 1021.1
20181208210442 38 315 4.0 8.0 0.01 0.38 0.15 95 1021.1
20181208205937 38 45 4.0 8.0 0.01 0.38 0.15 95 1021.1
20181208205434 38 23 4.0 7.0 0.01 0.38 0.15 95 1021.1
20181208204931 38 23 4.0 8.0 0.00 0.37 0.14 95 1021.1
20181208204431 38 338 5.0 10.0 0.00 0.37 0.14 95 1021.4
20181208203928 38 248 5.0 10.0 0.00 0.37 0.14 95 1021.1
20181208203425 38 23 2.0 11.0 0.00 0.37 0.14 95 1021.1
20181208202920 38 23 4.0 11.0 0.00 0.37 0.14 95 1021.1
20181208202417 38 45 3.0 8.0 0.00 0.37 0.14 95 1021.1
20181208201914 38 23 4.0 8.0 0.00 0.37 0.14 95 1021.4